Content
SEND FEEDBACK

Daily
Averages
Monthly
Summary
United States of America

YIGO, GUAM


Home > North America > United States > Guam
Elevation: 530 feet     Latitude: 13 32N     Longitude: 144 53E

WEATHER
 
SELECT A DAY
Number of Records: 213,786;   Date Range: 1/1/95 - 10/20/14
 
SHARE

PRINT THIS DATA

[ ← Previous Day ]
WEATHER ALMANAC - APRIL 1, 2013
[ Next Day → ]
[ °C ]   °F
Weather ElementAverageHighLow
Temperature83 °F89.1 °F (11:54 am)78.8 °F (7:36 pm)
Dewpoint74.7 °F77 °F (8:13 am)73 °F (1:54 am)
Humidity76.6 %89 % (7:36 pm)61 % (11:54 am)
Barometer29.94 in30.00 in (8:13 am)29.89 in (2:54 pm)
Wind Speed14.1 mph23 mph (6:27 pm)
Wind Gust31.1 mph (6:27 pm)
Weather ElementAverage
Visibility8.9 mi
Wind DirectionENE (76.8 °)

Weather ElementTotal
Precipitation0.16 in
Cooling Degree Days19 (Base 65)
Growing Degree Days34 (Base 50)
Averaged from 37 records on April 1, 2013
WEATHER CONDITIONS BREAKOUT
WIND DIRECTION BREAKOUT
WEATHER BY HOUR - APRIL 1, 2013
[ °C ]   °F
Local TimeTemperatureDewpointHumidityBarometerVisibilityWind DirectionWind SpeedGust SpeedPrecipitationEventsConditions
1:54 AM82.0 °F73.0 °F74 %29.91 in10.0 miEast (80°)10.4 mphPartly Cloudy
2:54 AM82.0 °F73.0 °F74 %29.90 in10.0 miEast (80°)9.2 mph0.00 inClear
3:54 AM81.0 °F73.9 °F79 %29.90 in10.0 miEast (80°)9.2 mph0.00 inPartly Cloudy
4:54 AM81.0 °F73.0 °F77 %29.91 in10.0 miEast (80°)6.9 mphClear
5:54 AM82.0 °F73.9 °F76 %29.93 in10.0 miEast (80°)10.4 mphMostly Cloudy
6:54 AM81.0 °F75.0 °F82 %29.95 in10.0 miENE (70°)9.2 mph0.03 inClear
7:34 AM82.4 °F75.2 °F79 %29.99 in10.0 miEast (80°)9.2 mphMostly Cloudy
7:45 AM82.4 °F75.2 °F79 %29.99 in10.0 miEast (80°)9.2 mphMostly Cloudy
7:54 AM82.0 °F75.9 °F82 %29.97 in10.0 miENE (70°)8.1 mphScattered Clouds
8:13 AM82.4 °F77.0 °F84 %30.00 in10.0 miENE (70°)11.5 mphMostly Cloudy
8:33 AM84.2 °F75.2 °F74 %30.00 in10.0 miENE (60°)17.3 mphScattered Clouds
8:54 AM84.9 °F75.0 °F72 %29.98 in10.0 miEast (90°)13.8 mphClear
9:54 AM87.1 °F73.9 °F65 %29.98 in10.0 miENE (70°)17.3 mphPartly Cloudy
10:54 AM88.0 °F75.0 °F65 %29.96 in10.0 miEast (80°)16.1 mphScattered Clouds
11:54 AM89.1 °F73.9 °F61 %29.94 in10.0 miEast (80°)13.8 mphScattered Clouds
12:38 PM87.8 °F73.4 °F62 %29.95 in10.0 miENE (70°)16.1 mph25.3 mphMostly Cloudy
12:54 PM89.1 °F73.9 °F61 %29.91 in9.0 miENE (70°)19.6 mph29.9 mphMostly Cloudy
1:54 PM86.0 °F75.0 °F70 %29.90 in10.0 miENE (60°)17.3 mph27.6 mph0.00 inMostly Cloudy
2:54 PM88.0 °F73.0 °F61 %29.89 in10.0 miENE (60°)20.7 mph28.8 mphPartly Cloudy
3:37 PM87.8 °F75.2 °F66 %29.91 in10.0 miEast (80°)16.1 mph24.2 mphMostly Cloudy
3:54 PM84.9 °F75.9 °F74 %29.89 in10.0 miEast (80°)15.0 mph0.00 inMostly Cloudy
4:54 PM82.0 °F75.9 °F82 %29.90 in8.0 miEast (80°)19.6 mph26.5 mph0.01 inRainLight Rain
5:54 PM82.9 °F75.0 °F77 %29.90 in10.0 miEast (80°)17.3 mph21.9 mph0.00 inMostly Cloudy
6:27 PM80.6 °F75.2 °F84 %29.94 in3.0 miENE (60°)23.0 mph31.1 mph0.00 inRainRain
6:31 PM80.6 °F75.2 °F84 %29.94 in2.0 miENE (70°)18.4 mph31.1 mph0.01 inRainHeavy Rain
6:38 PM80.6 °F75.2 °F84 %29.94 in4.0 miEast (80°)16.1 mph28.8 mph0.02 inRainLight Rain
6:54 PM80.1 °F75.0 °F85 %29.91 in7.0 miEast (80°)18.4 mph25.3 mph0.02 inMostly Cloudy
7:27 PM80.6 °F75.2 °F84 %29.95 in4.0 miENE (70°)13.8 mph25.3 mph0.01 inRainHeavy Rain
7:36 PM78.8 °F75.2 °F89 %29.95 in7.0 miENE (70°)15.0 mph24.2 mph0.02 inRainLight Rain
7:54 PM79.0 °F73.0 °F82 %29.94 in10.0 miEast (80°)15.0 mph0.02 inMostly Cloudy
8:10 PM78.8 °F73.4 °F83 %29.96 in4.0 miEast (90°)11.5 mph23.0 mph0.01 inRainLight Rain
8:54 PM81.0 °F75.9 °F85 %29.94 in10.0 miEast (80°)13.8 mph0.01 inOvercast
9:54 PM82.0 °F75.0 °F79 %29.95 in10.0 miEast (90°)15.0 mph21.9 mphMostly Cloudy
10:54 PM82.0 °F75.9 °F82 %29.95 in10.0 miEast (80°)11.5 mphMostly Cloudy
11:05 PM82.4 °F75.2 °F79 %29.97 in10.0 miEast (80°)10.4 mphOvercast
11:38 PM82.4 °F75.2 °F79 %29.97 in10.0 miEast (90°)13.8 mph20.7 mphPartly Cloudy
11:54 PM82.0 °F75.0 °F79 %29.94 in10.0 miEast (90°)13.8 mph21.9 mphPartly Cloudy
Hourly data recorded from PGUM, located miles away from Yigo, Guam







STORIES FROM OUR PARTNERS